Regional Weather Roundup
Issued by NWS

Home | Current Version | Previous Version | Text Only | Print | Product List | Glossary Off
Versions: 1 2 3 4 5 6 7 8 9 10 11 12 13 14 15 16 17 18 19 20 21 22 23 24 25 26 27 28 29 30 31 32 33 34 35 36 37 38 39 40 41 42 43 44 45 46 47 48 49 50

000
ASUS43 KFSD 251210
RWRSD

WEATHER ROUNDUP FOR SOUTH DAKOTA
NATIONAL WEATHER SERVICE SIOUX FALLS SD
700 AM CDT MON MAY 25 2015

NOTE: "FAIR" INDICATES FEW OR NO CLOUDS BELOW 12,000 FEET WITH NO
SIGNIFICANT WEATHER AND/OR OBSTRUCTIONS TO VISIBILITY.


SDZ001>005-009-010-012>017-251300-
NORTHWEST AND NORTH CENTRAL SOUTH DAKOTA

CITY           SKY/WX    TMP DP  RH WIND       PRES   REMARKS
BUFFALO          N/A     53  50  89 N10       29.78S
FAITH            N/A     54  52  93 NE9       29.81F
MOBRIDGE       LGT RAIN  57  57 100 N8        29.78S FOG
$$

SDZ012>016-024>037-041>051-057-063-072>074-251300-
SOUTHWEST AND SOUTH CENTRAL SOUTH DAKOTA

CITY           SKY/WX    TMP DP  RH WIND       PRES   REMARKS
RAPID CTY ARPT CLOUDY    51  50  96 NW7       29.83S
PIERRE         CLOUDY    56  56 100 NE7       29.77R FOG
CUSTER         CLOUDY    45  42  89 NW3       29.86S
ELLSWORTH AFB  CLOUDY    51  51 100 NW6       29.83
PHILIP         CLOUDY    54  53  97 N3        29.80R
PINE RIDGE     LGT RAIN  53  50  89 N14       29.80R
SPEARFISH      LGT RAIN  48  48 100 W6        29.87S
WINNER         FOG       58  56  93 E5        29.76S VSB 1/4
$$

SDZ004>011-016>023-039-040-251300-
NORTHEAST SOUTH DAKOTA

CITY           SKY/WX    TMP DP  RH WIND       PRES   REMARKS
ABERDEEN       LGT RAIN  57  55  93 N10       29.76S FOG
WATERTOWN      CLOUDY    56  55  97 N9        29.72S
BROOKINGS      CLOUDY    57  55  94 NW5       29.73R
SISSETON         N/A     57  57 100 N12       29.71F
$$

SDZ017-020-022-023-036>040-048>070-251300-
SOUTHEAST SOUTH DAKOTA

CITY           SKY/WX    TMP DP  RH WIND       PRES   REMARKS
SIOUX FALLS    CLOUDY    59  57  93 W6        29.74R
HURON          CLOUDY    57  57 100 CALM      29.75R FOG
CHAMBERLAIN    CLOUDY    56  56  99 CALM      29.76R FOG
MITCHELL       FOG       58  58 100 NW6       29.76R VSB 1/4
YANKTON        CLOUDY    59  57  94 N5        29.73F VSB 1/2
$$

ABBREVIATIONS USED IN REMARKS
   TC - TEMPERATURE IN CELSIUS
  WCI - WIND CHILL INDEX
   HX - HEAT INDEX
  VSB - VISIBILITY




USA.gov is the U.S. government's official web portal to all federal, state and local government web resources and services.